User: anonymous   Login
Location: Bamobli
(6.6379°N, 10.9396°W)
Time: 08:43:12
(UTC+00:00)
Language:

XW-2C - Orbit

View from above orbital plane
View from above orbital plane
View from above satellite
View from above satellite

Ground track
Ground track

The orbit data is extracted from the following two-line orbital elements,

1 40906U 15049H   21128.84297898  .00000762  00000-0  42319-4 0  9995
2 40906  97.4867 131.6941 0013811 331.6949 111.7512 15.16674129311562
Epoch (UTC): 08 May 2021 20:13:53
Eccentricity: 0.0013811
inclination: 97.4867°
perigee height: 506 km
apogee height: 525 km
right ascension of ascending node: 131.6941°
argument of perigee: 331.6949°
revolutions per day: 15.16674129
mean anomaly at epoch: 111.7512°
orbit number at epoch: 31156

The dashed part of the orbit path shows where the satellite is in the earth's shadow,  

DLR